Location: Unspecified
(30.2330°N, 120.0460°E)
Time: 05:49:27
(UTC+00:00)

Daily predictions for brighter satellites

Satellite Brightness Start Highest point End
(mag) Time Altitude Azimuth Time Altitude Azimuth Time Altitude Azimuth
ASTRO E2 2.9 09:20:08 10° W 09:24:09 77° SSW 09:28:09 10° ESE
Cosmos 1092 Rocket 4.2 09:18:44 10° N 09:24:59 81° W 09:31:16 10° S
Cosmos 1500 3.1 09:21:47 10° N 09:25:32 64° E 09:29:14 10° SSE
Lacrosse 5 1.9 09:21:31 10° NW 09:26:36 83° NE 09:31:39 10° SE
BREEZE-M DEB (TANK) 3.4 09:25:16 10° NNW 09:27:43 37° NE 09:33:31 10° ESE
CSL-04 Rocket 3.7 09:28:35 10° SSE 09:33:56 88° ENE 09:39:23 10° NNW
Atlas 2A Centaur Rocket 4.1 09:09:43 10° W 09:37:19 72° S 09:42:05 10° ESE
Cosmos 990 Rocket 4.1 09:32:16 10° SSW 09:37:23 81° WNW 09:42:34 10° NNE
Cosmos 1697 Rocket 4.4 09:35:29 10° ESE 09:37:35 12° E 09:39:39 10° ENE
Cosmos 2150 Rocket 4.1 09:32:32 10° SSW 09:37:59 89° ESE 09:43:29 10° NNE
Abrixas rocket 4.1 09:36:29 10° W 09:39:09 23° NW 09:41:50 10° NNE
YAOGAN 1 2.9 09:37:57 10° SE 09:42:01 42° ENE 09:46:06 10° N
Cosmos 1455 Rocket 4.0 09:38:40 10° NNE 09:42:26 27° E 09:46:09 10° SE
Cosmos 389 Rocket 3.2 09:39:33 10° NNE 09:42:40 30° E 09:45:43 10° SE
ERS-2 3.3 09:40:42 10° ESE 09:43:34 22° ENE 09:46:25 10° NNE
SPOT 3 Rocket 4.5 09:40:35 10° SE 09:44:49 26° ENE 09:49:03 10° NNE
Cosmos 2026 Rocket 4.1 09:38:54 10° N 09:45:18 88° E 09:51:37 10° S
Cosmos 1544 Rocket 4.2 09:42:02 10° NNE 09:45:56 32° E 09:49:49 10° SE
MTI 3.7 09:49:10 10° NNE 09:52:24 77° ESE 09:55:38 10° S
Hubble Space Telescope 1.1 09:52:55 10° WSW 09:57:00 59° S 10:00:01 17° E
METEOR-M 4.1 09:52:14 10° SSE 09:57:27 59° ENE 10:02:41 10° N
Cosmos 1666 3.0 09:54:45 10° N 09:58:19 41° E 10:01:51 10° SSE
Cosmos 2219 3.3 09:53:21 10° N 09:58:50 54° ENE 10:04:18 10° SE
Cosmos 2227 Rocket 3.4 09:55:45 10° NNE 09:59:42 19° ENE 10:01:07 17° E
Delta 2 Rocket 4.4 09:54:49 10° W 10:00:04 47° N 10:03:16 20° ENE
COSMO-SKYMED 1 2.5 09:55:45 10° NNE 10:00:06 82° ESE 10:04:26 10° S
Meteor 1-13 Rocket 4.1 09:58:05 10° S 10:03:36 77° E 10:09:12 10° N
SMAP 4.1 09:59:47 10° S 10:04:15 48° W 10:08:44 10° NNW
NOAA 12 4.4 10:02:45 10° SE 10:07:41 42° ENE 10:12:37 10° N
Cosmos 1932 4.5 10:04:31 10° NNW 10:10:44 56° ENE 10:16:48 10° SE
ALOS 2.4 10:08:44 10° SSE 10:13:13 49° ENE 10:17:43 10° N
Cosmos 1980 Rocket 3.9 10:12:37 10° SE 10:14:43 15° ESE 10:14:43 15° ESE
PSLV R/B 3.5 10:13:19 10° WSW 10:16:23 52° NNW 10:17:17 36° NNE
SJ 16-02 1.5 10:13:20 10° S 10:17:34 51° ESE 10:19:44 26° NE
EO 1 Del DPAF 3.6 10:14:33 10° N 10:18:19 65° WNW 10:22:05 10° SSW
GOES 2 Rocket 3.7 10:15:25 10° WSW 10:20:06 62° SSE 10:23:17 26° E
ATLAS CENTAUR R/B 4.1 10:18:44 10° WNW 10:21:58 22° WSW 10:25:19 10° SSW
Meteor 2-4 Rocket 3.6 10:17:19 10° S 10:22:53 88° E 10:28:19 10° N
MONITOR-E 4.0 10:20:21 10° S 10:23:23 85° W 10:26:25 10° NNW
Cosmos 2297 Rocket 3.2 10:22:44 10° N 10:26:17 25° NE 10:26:17 25° NE
OAO 1 Rocket 4.4 10:23:42 10° WSW 10:29:02 84° NNW 10:31:10 37° ENE
Cosmos 1743 3.5 10:25:37 10° NNW 10:29:23 53° W 10:33:09 10° S
CZ-4 R/B 3.6 10:27:16 10° SSW 10:30:28 26° W 10:33:44 10° NW
Gbstr 26 Del rocket 4.4 10:25:55 10° SSW 10:33:56 68° SE 10:37:41 32° ENE
Cosmos 1536 Rocket 4.1 10:30:36 10° SSW 10:34:55 59° W 10:39:14 10° N
Cosmos 1607 4.3 10:29:13 10° NNW 10:35:40 69° WSW 10:41:59 10° SSE
MOS 1 4.5 10:31:05 10° S 10:36:46 74° WSW 10:42:27 10° NNW
DELTA 2 R/B (1) 4.5 10:31:45 10° W 10:36:53 37° NNW 10:38:44 29° NNE
Cosmos 1125 Rocket 3.5 10:32:07 10° SSW 10:37:25 85° WNW 10:41:06 21° NNE
Cosmos 1515 4.4 10:34:20 10° S 10:36:53 36° SE 10:36:53 36° SE
Okean 2 4.2 10:41:19 10° S 10:44:00 36° SSE 10:44:00 36° SSE
Cosmos 2369 3.9 10:40:28 10° SSW 10:46:05 72° WNW 10:49:46 23° NNE
Cosmos 2278 3.8 10:43:19 10° SSW 10:48:57 72° WNW 10:52:21 25° N
ATLAS 2AS CENTAUR R/B 4.3 10:43:03 10° WSW 10:49:58 36° NW 10:57:16 10° NNE
Cosmos 1025 Rocket 3.4 10:46:12 10° S 10:49:32 49° SSE 10:49:32 49° SSE
Cosmos 1241 Rocket 4.4 10:47:04 10° SSW 10:53:26 69° ESE 10:55:07 49° NE
Cosmos 1656 3.9 10:51:23 10° SSW 10:56:58 67° WNW 10:59:39 31° N
Nadezhda 2 Rocket 4.4 10:52:18 10° N 10:58:33 62° E 11:04:51 10° SSE
FengYun 1-2 T 4.1 10:55:24 10° SSE 11:00:55 72° ENE 11:06:32 10° N
ASTRO E2 4.5 11:01:06 10° W 11:04:27 25° SSW 11:04:52 25° SSW
Atlas Centaur 2 2.2 11:03:18 10° W 11:06:31 46° W 11:06:31 46° W
ATLAS 3B R/B 2.5 11:03:26 10° NNW 11:09:27 61° NE 11:09:27 61° NE
NOSS 3-4 (A) 3.3 11:04:35 10° SSW 11:10:48 89° ESE 11:11:39 69° NNE
NOSS 3-4 (C) 3.3 11:04:41 10° SSW 11:10:54 88° ESE 11:11:41 70° NE
Meteor 2-11 Rocket 4.5 11:05:19 10° S 11:11:27 77° W 11:14:44 29° N
Cosmos 1697 Rocket 3.0 11:15:18 10° SSW 11:20:53 64° WNW 11:21:27 60° NW
Skynet4D Del rocket 4.1 11:18:54 10° WSW 11:23:28 50° SSW 11:23:28 50° SSW
Hubble Space Telescope 3.3 11:34:01 10° W 11:35:23 20° W 11:35:23 20° W
Cosmos 2227 Rocket 3.2 11:38:32 10° NNW 11:43:11 44° W 11:43:11 44° W
SJ 16-02 4.4 11:56:09 10° WNW 11:56:25 10° WNW 11:56:40 10° WNW
